Find Starlink 33886

NORAD ID: 63681 Int'l Des: 2025-085 Owner: SPXS Country: US Constellation: starlink operational
LEOCIRCULAR

Current View

Loading 3D Globe...

About Starlink 33886

Starlink 33886 (NORAD 63681) is a starlink constellation satellite (v2 mini) launched Apr 28, 2025 by SPXS of US. It operates in LEO, CIRCULAR orbit with a mass of 575.00 kg.

About Starlink 33886

Description loading...

Upcoming Passes

Passes for default location (London). Set your location on the main map for personalized predictions.

Altitude History

Loading altitude history...

Two-Line Element Set

1 63681U 25085T 26171.07139013 .00013863 00000-0 51213-3 0 9991
2 63681 43.0007 172.2166 0001304 240.9728 119.0993 15.27592929 64536
Epoch: Jun 20, 2026 • Age: 40 hours

Current Status

Altitude 482.7 km
Velocity 7.63 km/s
Sub-Earth Point -3.00°S, 169.85°E
Launch Date Apr 28, 2025
Age 1.1 years
Type internet

Technical Details

Classification Payload
Mass 575.00 kg
Dry Mass 530.00 kg
Total Mass 575.00 kg
Length 0.30 m
Diameter 4.10 m
Span 29.00 m
Shape Box + pan
Manufacturer SPXS
Bus Type Starlink V2MO
Phase Status In Orbit
Owner/State SPXS/US

Most Searched